星链-11532 (STARLINK-11532)

导读 | 星芒AI

STARLINK-11532 是 SpaceX Starlink 项目中的一颗低轨通信卫星,属于第 5 批部署的星链卫星群。该卫星于 2020 年 11 月发射,运行在约 550 公里的轨道高度,旨在为全球提供高速互联网服务。作为星链计划的一部分,STARLINK-11532 采用先进通信技术,支持宽带接入和低延迟通信,助力偏远地区网络覆盖。其设计符合逐步退役和离轨要求,以减少太空垃圾风险。

基本信息
目录编号:
62596
目录名称:
STARLINK-11532
国际标识:
2025-008K
轨道中心:
EARTH
卫星名称:
星链-11532
卫星全名:
星链-11532 (STARLINK-11532)
卫星状态:
已陨落 最后检测时间 2025-08-02
发射日期:
2025-01-13 UTC
国别 :
美国 (US)
星等 :
--
轨道信息
数据来源 国际轨道数据
星历时间: 2025-08-02T14:00:02+0800
轨道信息已过期93天
半长轴: 6596.449km
偏心率: 0.0010969
轨道倾角: 42.985°
近地点辐角 301.426°
升交点赤经 1.085°
平近点角 221.714°
近地点: 211.078km
远地点: 225.55km
周期: 88.864分钟
每日圈数: 16.204571
详细信息
固有亮度:
5
最大亮度:
2.5
卫星平台:
Starlink V1.0
覆盖范围:
全球
运营商:
太空探索技术公司
运营商所在国:
美国
制造商(研发单位):
太空探索技术公司
制造商所在国:
美国
使用方式:
暂无
卫星简介
Starlink 计划是 SpaceX 推出的全球卫星互联网项目,通过发射低轨道卫星,为全球尤其是偏远地区提供高速、低延迟的互联网服务。自 2019 年起,Starlink 已部署数千颗卫星,旨在缩小全球数字鸿沟,推动互联网普及。该项目还为军事、航空等行业提供通信支持,带来广泛经济效益。